Weather History for Sussex, NJ

Change the Weather History Date:

Friday, March 23, 2012

  Actual Average Record
Temperature  
Mean Temperature 62 °F -  
Max Temperature 75 °F 47 °F 75 °F (2012)
Min Temperature 50 °F 26 °F 12 °F (2004)
Degree Days  
Heating Degree Days 4    
Growing Degree Days 12 (Base 50)    
Moisture  
Dew Point 49 °F    
Average Humidity 75    
Maximum Humidity 100    
Minimum Humidity 34    
Precipitation  
Precipitation 0.00 in - - ()
Sea Level Pressure  
Sea Level Pressure 30.08 in    
Wind  
Wind Speed 1 mph (NE)    
Max Wind Speed 12 mph    
Max Gust Speed 18 mph    
Visibility 5 miles    
Events Fog , Rain    
Averages and records for this station are not official NWS values.
T = Trace of Precipitation, MM = Missing Value Source: NWS Daily Summary

Daily Weather History Graph

Daily Weather History Graph

Search for Another Location

Airport:

Trip Planner

Search our weather history database for the weather conditions in past years. The results will help you decide how hot, cold, wet, or windy it might be!

Date:

Astronomy

Mar. 23, 2012 Rise Set
Actual Time 6:56 AM EDT 7:14 PM EDT
Civil Twilight 6:28 AM EDT 7:42 PM EDT
Nautical Twilight 5:56 AM EDT 8:14 PM EDT
Astronomical Twilight 5:23 AM EDT 8:47 PM EDT
Moon 7:02 AM EDT (3/23) 8:35 PM EDT (3/23)
Length of Visible Light 13h 13m
Length of Day
12h 18m
New Moon, 1% of the Moon is Illuminated
Mar 23
New Moon
Mar 30
First Quarter
Apr 6
Full
Apr 13
Last Quarter
Apr 21
New

Hourly Weather History & Observations

Time (EDT) Temp. Dew Point Humidity Pressure Visibility Wind Dir Wind Speed Gust Speed Precip Events Conditions
12:49 AM 53.6 °F 53.6 °F 100% 30.09 in 1.5 mi Calm Calm - N/A   Clear
12:53 AM 54.0 °F 53.1 °F 97% 30.09 in 1.2 mi Calm Calm - N/A   Clear
12:58 AM 55.4 °F 53.6 °F 94% 30.09 in 2.0 mi Calm Calm - N/A   Clear
1:05 AM 53.6 °F 53.6 °F 100% 30.09 in 4.0 mi Calm Calm - N/A   Clear
1:53 AM 54.0 °F 52.0 °F 93% 30.09 in 4.0 mi SSW 3.5 mph - N/A   Clear
2:53 AM 53.1 °F 52.0 °F 96% 30.08 in 2.5 mi Calm Calm - N/A   Clear
3:02 AM 53.6 °F 51.8 °F 94% 30.08 in 1.2 mi Calm Calm - N/A   Clear
3:05 AM 53.6 °F 51.8 °F 94% 30.08 in 0.5 mi Calm Calm - N/A Fog Fog
3:53 AM 52.0 °F 51.1 °F 97% 30.07 in 2.5 mi Calm Calm - N/A   Overcast
4:04 AM 51.8 °F 51.8 °F 100% 30.07 in 1.2 mi Calm Calm - N/A   Overcast
4:14 AM 51.8 °F 50.0 °F 94% 30.07 in 0.5 mi Calm Calm - N/A Fog Fog
4:53 AM 51.1 °F 50.0 °F 96% 30.06 in 0.2 mi Calm Calm - N/A Fog Fog
5:53 AM 51.1 °F 50.0 °F 96% 30.08 in 0.2 mi Calm Calm - N/A Fog Fog
6:53 AM 50.0 °F 48.9 °F 96% 30.10 in 0.2 mi Calm Calm - N/A Fog Fog
7:41 AM 50.0 °F 48.2 °F 94% 30.11 in 1.5 mi Calm Calm - N/A   Overcast
7:44 AM 50.0 °F 48.2 °F 94% 30.11 in 2.0 mi Calm Calm - N/A   Mostly Cloudy
7:53 AM 51.1 °F 50.0 °F 96% 30.12 in 2.5 mi Calm Calm - N/A   Scattered Clouds
8:11 AM 51.8 °F 51.8 °F 100% 30.12 in 3.0 mi Calm Calm - N/A   Clear
8:53 AM 55.9 °F 54.0 °F 93% 30.13 in 5.0 mi Calm Calm - N/A   Clear
10:53 AM 68.0 °F 48.9 °F 50% 30.13 in 10.0 mi NE 11.5 mph 16.1 mph N/A   Partly Cloudy
11:53 AM 72.0 °F 48.0 °F 43% 30.12 in 10.0 mi NNE 8.1 mph - N/A   Scattered Clouds
12:53 PM 72.0 °F 42.1 °F 34% 30.11 in 10.0 mi ENE 10.4 mph - N/A   Overcast
1:53 PM 73.0 °F 43.0 °F 34% 30.09 in 10.0 mi NNE 10.4 mph 18.4 mph N/A   Mostly Cloudy
2:53 PM 73.0 °F 46.0 °F 38% 30.06 in 10.0 mi NE 8.1 mph - N/A   Overcast
3:53 PM 72.0 °F 46.0 °F 40% 30.05 in 10.0 mi NE 9.2 mph - N/A   Overcast
4:53 PM 71.1 °F 46.0 °F 41% 30.04 in 10.0 mi NNE 6.9 mph - N/A   Mostly Cloudy
5:53 PM 70.0 °F 45.0 °F 41% 30.04 in 10.0 mi NNE 8.1 mph - N/A   Mostly Cloudy
6:53 PM 68.0 °F 46.0 °F 45% 30.04 in 10.0 mi Calm Calm - 0.00 in   Clear
7:53 PM 66.0 °F 48.0 °F 52% 30.04 in 10.0 mi Calm Calm - 0.00 in   Clear
8:53 PM 63.0 °F 46.9 °F 56% 30.05 in 10.0 mi Calm Calm - 0.00 in Rain Light Rain
9:53 PM 61.0 °F 45.0 °F 56% 30.05 in 10.0 mi Calm Calm - 0.00 in Rain Light Rain
10:53 PM 57.0 °F 45.0 °F 64% 30.04 in 10.0 mi Calm Calm - 0.00 in Rain Light Rain
11:53 PM 55.0 °F 46.0 °F 72% 30.05 in 10.0 mi Calm Calm - 0.00 in Rain Light Rain